Wind_Speed
15 16 15 15 15 13 17 13 19 14 22 30 33 21 16 20 32 31 27 25 22 23 24 25 25 28 31 33 33 35 36 36 38 39 41 42 44 47 50 52 53 54 55 53
14 13 16 17 16 16 21 22 19 16 18 29 27 22 19 21 29 34 31 24 23 23 25 27 28 27 30 35 36 36 37 38 40 41 44 45 47 50 51 53 54 55 51 52
15 12 16 21 19 19 20 23 21 17 18 33 38 33 22 24 23 31 35 25 23 25 28 30 31 30 29 30 38 35 37 41 42 44 47 48 51 52 54 56 54 52 54 55
19 19 23 21 18 20 20 18 21 18 23 24 26 25 20 16 21 24 35 32 26 25 28 32 37 38 36 35 33 35 41 43 44 46 49 51 54 56 57 55 55 56 55 56
17 21 25 23 21 22 18 29 20 27 32 32 30 30 20 16 23 28 38 34 29 24 27 31 34 42 44 44 39 36 41 44 47 49 51 54 56 58 54 55 54 53 56 59
18 24 25 23 22 25 23 30 31 32 28 32 27 28 24 19 29 21 31 32 30 23 25 31 37 43 43 40 42 44 45 47 48 50 54 56 56 53 53 52 53 56 59 62
20 24 27 24 24 24 26 29 25 28 25 25 19 19 15 22 33 33 32 37 37 33 30 31 40 44 42 40 40 43 45 48 49 51 54 54 53 52 52 55 58 61 63 61
17 14 23 24 25 22 26 26 25 26 19 16 23 20 20 32 27 32 38 42 42 35 29 36 43 43 40 39 42 45 48 50 51 52 53 51 52 51 54 58 62 64 60 55
19 15 14 17 30 21 20 23 18 23 23 25 18 15 31 26 38 37 26 31 35 33 35 37 36 38 40 42 44 46 47 49 51 52 50 51 50 54 58 63 64 58 56 57
24 26 20 17 27 26 22 20 18 23 29 29 26 22 31 40 41 24 21 24 30 31 35 31 31 34 40 44 46 45 46 48 48 47 47 49 53 58 62 62 56 56 59 61
23 28 24 19 27 26 23 25 31 29 22 25 26 21 29 25 26 15 24 33 34 22 34 36 35 37 41 44 44 45 45 45 44 43 47 51 56 60 58 55 57 60 63 60
25 30 30 25 15 16 12 21 26 26 26 30 34 30 25 11 17 32 34 32 35 31 33 35 39 39 41 42 43 44 42 42 41 45 49 54 59 55 53 58 60 61 36 34
28 31 26 26 28 30 31 24 30 30 22 26 31 35 30 42 23 32 33 31 33 32 34 38 40 39 40 41 42 40 39 38 43 47 51 57 53 51 58 60 43 35 30 31
32 31 32 31 24 23 29 36 43 37 38 28 27 34 32 37 29 36 36 18 25 31 35 40 41 40 39 40 38 36 36 40 43 48 54 54 47 52 54 33 31 31 30 29
32 29 29 28 28 25 27 38 48 44 38 43 35 35 29 45 35 40 33 32 34 37 38 40 39 37 37 34 34 34 37 41 45 50 55 49 48 53 40 32 27 26 27 26
29 26 24 26 27 29 28 31 38 48 48 37 45 38 12 29 38 37 46 45 41 39 43 37 36 35 33 31 31 34 39 43 47 51 52 44 48 44 32 26 24 27 23 25
26 27 23 23 20 24 31 27 32 40 44 45 36 36 35 36 34 46 37 32 36 42 38 35 32 31 29 28 31 36 40 44 47 53 47 46 49 27 26 20 23 22 18 20
31 32 29 25 23 29 19 22 35 34 36 41 44 33 50 47 44 38 46 40 39 39 33 31 31 28 26 27 33 36 41 44 49 50 45 50 31 22 22 17 22 18 16 15
33 33 31 29 26 25 21 22 32 29 27 31 41 51 40 31 41 36 43 42 39 32 31 30 26 24 24 28 32 38 42 45 51 45 48 33 18 18 15 18 18 13 13 13
35 35 31 30 28 25 14 29 32 33 30 29 36 38 34 43 41 41 32 32 31 26 29 25 22 22 24 28 33 39 43 47 47 44 44 19 14 17 16 16 13 14 11 11
32 33 31 31 28 24 25 29 28 29 36 29 27 22 35 29 24 25 23 25 25 25 26 22 21 21 24 29 34 39 43 48 43 44 32 22 19 18 13 11 10 10 10 12
30 33 34 32 31 27 29 23 27 27 33 28 32 26 26 21 23 25 23 24 23 24 22 19 19 20 25 29 35 39 43 46 43 39 28 21 19 19 14 6 4 7 10 12
35 30 27 35 32 28 24 25 27 27 33 29 23 24 26 32 21 23 23 23 22 24 19 18 18 20 24 29 34 39 42 42 42 34 28 21 15 10 1 2 3 7 10 10
27 31 33 33 30 31 24 24 23 28 32 25 25 28 30 21 35 20 24 24 21 22 17 17 17 19 23 28 33 37 41 39 39 32 27 17 9 6 3 2 4 8 8 7
31 30 24 21 31 27 25 23 22 25 25 23 23 23 30 29 30 38 22 17 18 18 17 16 16 18 22 28 31 35 39 37 35 29 22 12 5 5 5 6 8 12 13 13
35 33 35 30 29 26 21 21 23 22 22 23 28 26 22 38 34 18 16 16 16 14 15 15 14 16 21 26 30 33 36 35 31 26 17 8 4 6 9 10 9 9 9 9
Wind_Direction
247 246 244 240 238 213 191 243 273 232 265 277 282 277 262 245 277 292 301 300 295 289 282 285 288 296 300 301 304 304 304 305 301 302 301 303 304 305 305 303 302 302 302 302
248 254 249 246 243 232 211 213 225 242 237 255 257 278 266 255 257 280 295 300 296 289 288 291 293 296 295 297 299 302 305 300 301 303 304 306 306 304 303 304 304 304 304 303
244 234 248 243 245 247 239 235 236 230 243 255 264 273 269 267 262 264 284 298 288 288 293 295 294 295 292 291 291 305 297 302 303 306 307 308 305 306 306 308 308 307 305 303
247 234 250 257 254 254 256 261 247 233 230 252 277 286 282 286 275 266 269 290 286 273 276 284 291 297 298 292 307 299 302 303 307 307 308 307 308 308 309 309 308 307 306 304
249 251 252 255 253 250 243 230 238 244 249 254 250 259 269 270 251 273 262 282 286 268 271 281 284 282 297 306 307 303 301 305 307 308 307 309 309 309 309 308 308 307 307 305
244 240 250 267 259 255 244 251 251 263 266 264 274 273 266 241 259 252 252 267 281 282 267 262 268 283 300 303 305 305 306 307 307 308 308 308 308 308 308 308 307 307 306 306
249 253 266 263 259 255 259 265 260 262 268 284 303 273 254 246 244 238 241 257 280 284 283 276 277 289 297 301 301 302 303 304 305 305 306 308 307 307 308 308 309 309 308 307
253 266 293 283 264 257 268 260 257 258 246 264 281 233 240 257 274 264 258 263 269 276 276 270 279 293 299 300 302 302 303 302 305 307 308 307 308 309 310 310 310 310 310 309
230 245 242 258 275 252 236 266 276 248 248 235 251 288 277 287 277 278 260 263 270 275 278 282 294 297 302 305 303 302 303 305 307 308 308 310 311 312 312 312 312 311 309 307
247 224 211 241 253 265 254 228 247 251 265 264 255 246 255 263 277 237 263 281 279 277 278 285 295 299 306 305 303 304 303 305 307 309 312 314 315 314 314 313 311 310 309 308
251 242 235 230 254 273 277 258 239 244 246 273 265 244 256 260 262 260 281 296 288 278 294 306 308 303 304 301 303 304 308 310 311 313 316 317 316 315 314 313 312 313 312 310
242 255 251 230 265 248 259 229 271 246 259 255 262 257 234 263 271 269 286 282 277 279 284 301 305 307 299 303 305 308 310 312 315 318 319 318 319 317 316 316 315 316 323 329
237 253 255 253 236 246 263 227 232 250 244 229 241 262 256 273 239 256 264 266 275 287 294 303 308 305 305 307 310 312 313 316 320 321 320 321 319 320 320 318 320 322 326 327
254 247 249 255 249 237 258 255 247 231 238 244 237 272 280 273 268 274 271 248 281 295 302 308 304 304 306 310 311 312 315 321 320 322 324 321 320 322 325 329 323 327 330 333
244 249 250 252 252 265 257 271 273 270 235 240 236 240 233 256 260 275 245 298 300 295 302 300 299 302 308 309 312 315 321 323 323 324 325 321 321 324 319 325 329 332 335 336
252 256 257 259 257 256 263 266 274 281 272 273 248 234 267 239 262 257 271 283 292 293 300 298 300 304 307 310 315 322 326 325 324 324 325 321 323 326 322 322 331 336 344 347
260 260 252 257 258 264 265 274 264 262 274 270 264 261 291 273 261 270 264 271 294 296 297 301 304 305 309 314 323 327 327 325 326 327 325 325 327 320 325 328 335 339 342 351
269 262 260 260 262 273 301 268 277 267 264 266 259 256 269 271 263 257 264 287 293 292 298 304 303 306 311 322 329 327 327 329 330 329 326 330 325 318 321 331 337 337 345 356
264 262 254 258 265 282 295 298 281 283 261 274 262 249 252 237 268 274 281 287 285 282 302 301 302 307 319 329 328 329 332 333 332 331 330 330 322 323 328 337 340 337 341 3
261 260 248 253 261 272 267 273 283 268 266 281 249 235 249 259 275 277 280 275 273 284 300 300 303 312 326 328 330 336 336 333 335 332 334 324 318 324 325 329 349 359 9 4
259 256 248 253 261 266 276 293 302 276 272 273 261 240 224 251 276 272 274 271 271 288 298 300 306 316 324 331 336 338 337 335 337 336 333 326 311 309 324 327 351 19 20 16
244 250 249 250 254 262 274 285 283 283 278 272 273 251 275 267 257 272 270 273 275 289 294 298 305 316 328 335 338 339 338 339 338 339 339 331 318 320 322 316 349 4 15 12
248 246 246 251 250 259 267 279 287 275 275 278 273 281 287 238 243 263 261 272 275 284 288 297 304 317 331 337 338 341 340 343 343 346 344 338 336 342 325 322 348 336 343 349
236 241 255 249 247 254 267 276 278 272 274 274 264 251 275 217 270 271 270 269 271 279 287 294 302 318 334 336 338 343 342 345 348 348 347 346 354 19 11 353 333 337 349 23
240 240 242 231 250 250 256 272 266 266 269 263 257 260 269 264 261 284 240 252 267 277 284 292 302 323 334 336 339 344 344 346 348 349 347 353 23 59 60 58 58 75 75 65
232 217 236 253 240 243 254 264 271 267 261 256 257 273 255 252 254 237 243 251 263 275 283 291 307 323 332 336 338 344 346 347 348 346 347 8 56 88 100 94 86 62 60 48
Height
5872 5873 5875 5876 5878 5880 5884 5891 5890 5890 5891 5883 5882 5883 5884 5882 5877 5876 5875 5873 5872 5871 5870 5869 5869 5866 5864 5863 5861 5859 5857 5855 5852 5848 5844 5841 5836 5830 5825 5819 5814 5808 5801 5795
5869 5871 5871 5872 5874 5876 5878 5881 5884 5888 5889 5883 5880 5878 5879 5880 5877 5872 5871 5871 5868 5866 5864 5863 5861 5862 5859 5856 5854 5853 5851 5847 5844 5840 5835 5831 5826 5821 5816 5809 5803 5795 5789 5782
5865 5866 5866 5868 5870 5872 5874 5875 5877 5881 5884 5878 5876 5874 5875 5875 5874 5872 5868 5868 5865 5862 5859 5857 5854 5854 5855 5853 5848 5848 5844 5840 5836 5831 5825 5821 5815 5810 5803 5796 5789 5783 5776 5769
5860 5863 5861 5864 5866 5868 5869 5872 5871 5874 5875 5875 5871 5868 5869 5870 5870 5869 5865 5864 5863 5860 5858 5854 5849 5845 5845 5845 5846 5840 5836 5830 5827 5821 5815 5811 5804 5798 5791 5784 5777 5770 5762 5755
5858 5858 5857 5860 5862 5862 5865 5860 5865 5866 5865 5866 5866 5865 5867 5868 5866 5865 5860 5860 5860 5857 5856 5853 5850 5841 5836 5835 5836 5834 5829 5822 5816 5811 5806 5800 5793 5786 5779 5772 5765 5758 5751 5743
5852 5851 5852 5855 5856 5857 5858 5857 5858 5858 5860 5857 5862 5861 5861 5863 5860 5860 5858 5855 5854 5853 5852 5851 5842 5834 5832 5830 5827 5822 5818 5813 5808 5803 5797 5790 5783 5776 5768 5761 5754 5747 5738 5729
5847 5847 5847 5850 5850 5851 5852 5851 5854 5853 5853 5855 5856 5853 5856 5854 5851 5854 5851 5849 5848 5847 5846 5842 5833 5829 5827 5825 5821 5816 5811 5805 5801 5795 5789 5781 5773 5764 5757 5749 5741 5733 5724 5714
5841 5843 5843 5843 5844 5847 5844 5847 5847 5847 5850 5853 5847 5850 5853 5848 5849 5852 5849 5846 5842 5841 5840 5833 5827 5823 5822 5819 5814 5807 5803 5797 5792 5785 5778 5770 5762 5754 5746 5737 5727 5717 5708 5700
5836 5840 5843 5839 5835 5841 5843 5840 5844 5842 5843 5843 5846 5846 5838 5838 5837 5839 5840 5838 5836 5833 5828 5825 5822 5817 5813 5810 5806 5801 5795 5788 5781 5775 5767 5758 5750 5742 5734 5724 5713 5703 5695 5688
5829 5831 5834 5837 5832 5833 5837 5840 5841 5837 5836 5837 5839 5841 5837 5831 5828 5827 5831 5831 5829 5826 5819 5819 5816 5811 5807 5802 5796 5793 5787 5780 5773 5765 5757 5749 5740 5731 5721 5710 5701 5692 5684 5674
5821 5825 5828 5832 5828 5829 5831 5831 5831 5831 5833 5829 5829 5832 5830 5826 5824 5821 5822 5821 5819 5815 5810 5809 5809 5806 5802 5796 5790 5784 5778 5770 5763 5756 5748 5739 5730 5719 5709 5699 5690 5680 5670 5659
5818 5815 5818 5823 5824 5823 5823 5827 5825 5823 5825 5826 5823 5824 5820 5817 5820 5817 5818 5817 5812 5809 5809 5806 5801 5798 5794 5788 5782 5776 5769 5762 5755 5747 5739 5730 5719 5709 5699 5689 5679 5669 5659 5651
5807 5810 5811 5814 5819 5820 5817 5815 5814 5813 5813 5813 5817 5814 5822 5814 5808 5810 5811 5806 5804 5804 5802 5798 5794 5789 5785 5779 5773 5767 5761 5755 5747 5739 5730 5720 5709 5699 5689 5678 5667 5662 5654 5647
5803 5804 5805 5806 5810 5811 5801 5808 5808 5805 5806 5802 5803 5812 5808 5806 5805 5802 5802 5798 5799 5798 5796 5791 5785 5782 5777 5771 5765 5760 5754 5747 5740 5731 5721 5711 5701 5692 5681 5671 5664 5658 5651 5644
5792 5793 5796 5799 5801 5804 5804 5799 5792 5795 5800 5796 5799 5797 5798 5793 5799 5795 5793 5789 5792 5792 5791 5785 5779 5774 5770 5764 5758 5753 5747 5740 5731 5722 5713 5702 5694 5684 5675 5668 5661 5654 5648 5642
5784 5786 5788 5788 5791 5793 5792 5797 5792 5786 5785 5792 5792 5792 5784 5781 5785 5787 5785 5785 5785 5786 5782 5777 5772 5767 5763 5758 5752 5746 5739 5732 5724 5715 5704 5694 5686 5676 5670 5664 5659 5653 5647 5642
5778 5778 5781 5781 5784 5784 5782 5788 5788 5784 5779 5776 5780 5781 5775 5778 5779 5780 5778 5780 5781 5778 5773 5769 5765 5761 5756 5752 5746 5740 5733 5725 5717 5706 5695 5686 5678 5671 5667 5662 5657 5651 5646 5642
5770 5772 5773 5774 5775 5774 5781 5778 5775 5774 5774 5772 5773 5775 5772 5773 5766 5772 5772 5773 5774 5771 5767 5762 5759 5755 5751 5746 5740 5735 5728 5719 5708 5698 5687 5678 5671 5668 5664 5660 5655 5650 5646 5641
5761 5763 5765 5765 5766 5768 5769 5770 5765 5763 5767 5766 5763 5766 5764 5763 5756 5763 5764 5768 5766 5764 5760 5757 5754 5750 5746 5741 5736 5730 5721 5711 5702 5690 5680 5672 5668 5665 5662 5658 5653 5649 5645 5642
5753 5754 5757 5758 5758 5759 5762 5756 5756 5755 5756 5757 5752 5758 5757 5756 5755 5758 5762 5760 5759 5758 5755 5752 5749 5745 5741 5737 5731 5723 5714 5705 5695 5685 5676 5669 5666 5663 5660 5657 5653 5649 5645 5642
5743 5746 5748 5749 5751 5751 5749 5751 5749 5750 5750 5751 5749 5751 5744 5748 5752 5753 5753 5753 5752 5752 5749 5746 5744 5741 5737 5732 5725 5718 5710 5700 5690 5680 5672 5667 5664 5661 5658 5655 5653 5649 5646 5643
5736 5737 5739 5742 5743 5743 5743 5743 5742 5742 5739 5740 5740 5742 5736 5742 5745 5745 5745 5746 5746 5746 5744 5742 5739 5737 5732 5728 5722 5715 5705 5695 5685 5676 5669 5664 5661 5658 5656 5654 5652 5650 5647 5644
5729 5731 5733 5733 5735 5736 5735 5735 5735 5735 5732 5733 5736 5736 5730 5727 5736 5737 5739 5740 5740 5740 5738 5737 5735 5732 5728 5724 5718 5711 5702 5692 5682 5674 5667 5662 5658 5655 5654 5653 5652 5650 5647 5644
5718 5717 5722 5724 5726 5726 5728 5728 5730 5728 5727 5728 5727 5729 5728 5715 5728 5732 5734 5735 5734 5735 5733 5732 5731 5728 5725 5721 5715 5708 5699 5690 5681 5673 5667 5662 5658 5656 5655 5654 5652 5650 5647 5644
5711 5715 5706 5709 5715 5720 5720 5720 5723 5723 5722 5722 5722 5721 5721 5722 5722 5725 5727 5728 5730 5730 5730 5728 5726 5724 5721 5717 5712 5706 5697 5688 5680 5673 5668 5664 5661 5658 5657 5655 5653 5652 5650 5647
5700 5704 5708 5708 5709 5711 5713 5714 5714 5716 5716 5717 5717 5717 5716 5713 5718 5720 5723 5725 5726 5726 5726 5724 5722 5720 5718 5714 5709 5703 5696 5688 5680 5674 5670 5667 5664 5662 5660 5658 5656 5654 5653 5651